If you wish to contribute or participate in the discussions about articles you are invited to join SKYbrary as a registered user

 Actions

Quito/Mariscal Sucre International Airport

From SKYbrary Wiki

SEQM
Airport
ICAO: SEQM – IATA: UIO
Summary
Name Quito/Mariscal Sucre International Airport
Region South America and Caribbean
Territory Ecuador EC.gif
Location Tababela, Pichincha
Serving Quito
Elevation 2,399.995 m
7,874 ft2,399.995 m
Coordinates 0° 7' 21.32" S, 78° 21' 30.81" W
Runways
Designator Length Width Surface ROPS


METAR
Observation SEQM 210300Z 36004KT 9999 FEW016 SCT033 BKN080 14/13 Q1027 NOSIG RMK A3035
Station Mariscal Sucre International Airport
Date/Time 21 November 2019 03:00:00
Wind direction 360°
Wind speed 04 kts
Lowest cloud amount few clouds
Temperature 14°C
Dew point 13°C
Humidity 93%
QNH 1027 hPa
Weather condition n/a

Mariscal Sucre International Airport is the busiest airport in Ecuador and one of the busiest airports in South America. It is located in the Tababela parish, about 18 km9.719 nm
18,000 m
59,055.118 ft
east of Quito.

Climatology

Subtropical Highland climate (Köppen climate classification Cwb)

Maps

Terrain

Loading map...

Airport Layout

Loading map...


Accidents & Serious Incidents at or in vicinity of SEQM

None on SKYbrary